• In Uzbekistan
  • List of Countries
  • For 7 days
  • Water Temperature
  • Satellite Maps
  • Weather Map
  • Weather Widgets
  • user-avatar
    Login

    Hourly Weather Pekin

    Today, 21 September, Friday

    Time Temperature Precipitation Wind Pressure Humidity
    00:00 +18°C° 0 mm 2 mps 756 mmHg 67%
    01:00 +18°C° 0 mm 2 mps 756 mmHg 65%
    02:00 +17°C° 0 mm 2 mps 756 mmHg 64%
    03:00 +17°C° 0 mm 2 mps 756 mmHg 62%
    04:00 +16°C° 0 mm 2 mps 756 mmHg 59%
    05:00 +16°C° 0 mm 2 mps 756 mmHg 56%
    06:00 +17°C° 0 mm 2 mps 756 mmHg 50%
    07:00 +19°C° 0 mm 2 mps 756 mmHg 44%
    08:00 +20°C° 0 mm 2 mps 756 mmHg 37%
    09:00 +23°C° 0 mm 2 mps 757 mmHg 31%
    10:00 +25°C° 0 mm 3 mps 757 mmHg 25%
    11:00 +27°C° 0 mm 4 mps 757 mmHg 19%
    12:00 +27°C° 0 mm 4 mps 756 mmHg 17%
    13:00 +28°C° 0 mm 4 mps 756 mmHg 16%
    14:00 +28°C° 0 mm 5 mps 756 mmHg 15%
    15:00 +28°C° 0 mm 4 mps 756 mmHg 17%
    16:00 +27°C° 0 mm 4 mps 756 mmHg 19%
    17:00 +27°C° 0 mm 3 mps 756 mmHg 21%
    18:00 +25°C° 0 mm 3 mps 756 mmHg 24%
    19:00 +22°C° 0 mm 3 mps 756 mmHg 26%
    20:00 +20°C° 0 mm 3 mps 757 mmHg 28%
    21:00 +19°C° 0 mm 3 mps 757 mmHg 29%
    22:00 +19°C° 0 mm 3 mps 758 mmHg 30%
    23:00 +18°C° 0 mm 3 mps 758 mmHg 31%

    Tomorrow, 22 September, Saturday

    Time Temperature Precipitation Wind Pressure Humidity
    00:00 +18°C° 0 mm 3 mps 758 mmHg 31%
    01:00 +17°C° 0 mm 4 mps 759 mmHg 31%
    02:00 +17°C° 0 mm 4 mps 759 mmHg 31%
    03:00 +16°C° 0 mm 3 mps 759 mmHg 32%
    04:00 +16°C° 0 mm 3 mps 759 mmHg 32%
    05:00 +14°C° 0 mm 3 mps 759 mmHg 32%
    06:00 +16°C° 0 mm 3 mps 759 mmHg 31%
    07:00 +17°C° 0 mm 3 mps 760 mmHg 30%
    08:00 +18°C° 0 mm 3 mps 760 mmHg 29%
    09:00 +20°C° 0 mm 3 mps 760 mmHg 26%
    10:00 +22°C° 0 mm 3 mps 760 mmHg 23%
    11:00 +24°C° 0 mm 3 mps 759 mmHg 20%
    12:00 +25°C° 0 mm 4 mps 759 mmHg 19%
    13:00 +26°C° 0 mm 4 mps 758 mmHg 18%
    14:00 +26°C° 0 mm 4 mps 758 mmHg 17%
    15:00 +26°C° 0 mm 4 mps 758 mmHg 18%
    16:00 +26°C° 0 mm 4 mps 758 mmHg 19%
    17:00 +25°C° 0 mm 4 mps 757 mmHg 20%
    18:00 +22°C° 0 mm 4 mps 758 mmHg 21%
    19:00 +20°C° 0 mm 3 mps 758 mmHg 23%
    20:00 +18°C° 0 mm 3 mps 759 mmHg 24%
    21:00 +18°C° 0 mm 3 mps 759 mmHg 25%
    22:00 +17°C° 0 mm 3 mps 760 mmHg 27%
    23:00 +16°C° 0 mm 3 mps 760 mmHg 28%

    Day after tomorrow, 23 September, Sunday

    Time Temperature Precipitation Wind Pressure Humidity
    00:00 +16°C° 0 mm 3 mps 760 mmHg 29%
    01:00 +14°C° 0 mm 3 mps 760 mmHg 31%
    02:00 +14°C° 0 mm 3 mps 760 mmHg 32%
    03:00 +14°C° 0 mm 3 mps 761 mmHg 34%
    04:00 +14°C° 0 mm 3 mps 761 mmHg 36%
    05:00 +13°C° 0 mm 3 mps 761 mmHg 38%
    06:00 +16°C° 0 mm 3 mps 761 mmHg 37%
    07:00 +17°C° 0 mm 3 mps 761 mmHg 37%
    08:00 +18°C° 0 mm 3 mps 762 mmHg 36%
    09:00 +20°C° 0 mm 4 mps 762 mmHg 33%
    10:00 +22°C° 0 mm 4 mps 762 mmHg 31%
    11:00 +25°C° 0 mm 4 mps 761 mmHg 28%
    12:00 +26°C° 0 mm 4 mps 761 mmHg 26%
    13:00 +27°C° 0 mm 4 mps 761 mmHg 24%
    14:00 +27°C° 0 mm 4 mps 760 mmHg 22%
    15:00 +27°C° 0 mm 3 mps 760 mmHg 23%
    16:00 +27°C° 0 mm 3 mps 760 mmHg 25%
    17:00 +26°C° 0 mm 2 mps 760 mmHg 26%
    18:00 +25°C° 0 mm 2 mps 760 mmHg 28%
    19:00 +23°C° 0 mm 2 mps 761 mmHg 31%
    20:00 +20°C° 0 mm 2 mps 762 mmHg 34%
    21:00 +19°C° 0 mm 2 mps 762 mmHg 36%
    22:00 +18°C° 0 mm 2 mps 763 mmHg 39%
    23:00 +17°C° 0 mm 2 mps 763 mmHg 42%

    24 September, Monday

    Time Temperature Precipitation Wind Pressure Humidity
    00:00 +16°C° 0 mm 2 mps 763 mmHg 43%
    01:00 +16°C° 0 mm 2 mps 763 mmHg 44%
    02:00 +15°C° 0 mm 2 mps 763 mmHg 45%
    03:00 +15°C° 0 mm 2 mps 763 mmHg 46%
    04:00 +14°C° 0 mm 2 mps 764 mmHg 48%
    05:00 +14°C° 0 mm 1 mps 764 mmHg 49%
    06:00 +15°C° 0 mm 1 mps 764 mmHg 46%
    07:00 +16°C° 0 mm 1 mps 764 mmHg 44%
    08:00 +17°C° 0 mm 2 mps 764 mmHg 41%
    09:00 +19°C° 0 mm 2 mps 764 mmHg 37%
    10:00 +21°C° 0 mm 2 mps 764 mmHg 32%
    11:00 +24°C° 0 mm 2 mps 764 mmHg 28%
    12:00 +25°C° 0 mm 2 mps 763 mmHg 26%
    13:00 +26°C° 0 mm 2 mps 762 mmHg 25%
    14:00 +26°C° 0 mm 2 mps 762 mmHg 24%
    15:00 +26°C° 0 mm 2 mps 762 mmHg 25%
    16:00 +26°C° 0 mm 2 mps 761 mmHg 27%
    17:00 +25°C° 0 mm 2 mps 761 mmHg 29%
    18:00 +23°C° 0 mm 2 mps 762 mmHg 33%
    19:00 +21°C° 0 mm 1 mps 762 mmHg 37%
    20:00 +19°C° 0 mm 1 mps 762 mmHg 41%
    21:00 +18°C° 0 mm 1 mps 763 mmHg 42%
    22:00 +18°C° 0 mm 1 mps 763 mmHg 44%
    23:00 +16°C° 0 mm 1 mps 763 mmHg 45%

    25 September, Tuesday

    Time Temperature Precipitation Wind Pressure Humidity
    00:00 +16°C° 0 mm 1 mps 763 mmHg 47%
    01:00 +15°C° 0 mm 1 mps 763 mmHg 48%
    02:00 +15°C° 0 mm 1 mps 763 mmHg 49%
    03:00 +15°C° 0 mm 1 mps 763 mmHg 50%
    04:00 +14°C° 0 mm 1 mps 763 mmHg 51%
    05:00 +14°C° 0 mm 1 mps 763 mmHg 52%
    06:00 +15°C° 0 mm 1 mps 763 mmHg 50%
    07:00 +18°C° 0 mm 1 mps 764 mmHg 47%
    08:00 +19°C° 0 mm 1 mps 764 mmHg 44%
    09:00 +21°C° 0 mm 1 mps 764 mmHg 41%
    10:00 +21°C° 0 mm 2 mps 763 mmHg 37%
    11:00 +24°C° 0 mm 2 mps 763 mmHg 33%
    12:00 +25°C° 0 mm 2 mps 762 mmHg 32%
    13:00 +26°C° 0 mm 3 mps 762 mmHg 31%
    14:00 +27°C° 0 mm 3 mps 761 mmHg 30%
    15:00 +27°C° 0 mm 3 mps 761 mmHg 31%
    16:00 +27°C° 0 mm 2 mps 761 mmHg 32%
    17:00 +26°C° 0 mm 2 mps 761 mmHg 34%
    18:00 +24°C° 0 mm 2 mps 761 mmHg 38%
    19:00 +21°C° 0 mm 2 mps 762 mmHg 43%
    20:00 +20°C° 0 mm 1 mps 762 mmHg 47%
    21:00 +20°C° 0 mm 1 mps 762 mmHg 50%
    22:00 +19°C° 0 mm 1 mps 762 mmHg 53%
    23:00 +18°C° 0 mm 1 mps 762 mmHg 55%

    26 September, Wednesday

    Time Temperature Precipitation Wind Pressure Humidity
    00:00 +18°C° 0 mm 1 mps 762 mmHg 58%
    01:00 +16°C° 0 mm 1 mps 762 mmHg 60%
    02:00 +16°C° 0 mm 1 mps 762 mmHg 62%
    03:00 +16°C° 0 mm 1 mps 762 mmHg 64%
    04:00 +15°C° 0 mm 1 mps 762 mmHg 65%
    05:00 +15°C° 0 mm 1 mps 762 mmHg 66%
    06:00 +16°C° 0 mm 1 mps 762 mmHg 62%
    07:00 +18°C° 0 mm 1 mps 763 mmHg 58%
    08:00 +19°C° 0 mm 1 mps 763 mmHg 54%
    09:00 +20°C° 0 mm 2 mps 762 mmHg 49%
    10:00 +23°C° 0 mm 2 mps 762 mmHg 44%
    11:00 +25°C° 0 mm 3 mps 762 mmHg 38%
    12:00 +26°C° 0 mm 3 mps 761 mmHg 36%
    13:00 +27°C° 0 mm 4 mps 760 mmHg 34%
    14:00 +28°C° 0 mm 5 mps 760 mmHg 32%
    15:00 +28°C° 0 mm 4 mps 760 mmHg 33%
    16:00 +28°C° 0 mm 4 mps 759 mmHg 33%
    17:00 +27°C° 0 mm 4 mps 759 mmHg 34%
    18:00 +26°C° 0 mm 4 mps 759 mmHg 38%
    19:00 +24°C° 0 mm 3 mps 760 mmHg 41%
    20:00 +21°C° 0 mm 3 mps 760 mmHg 45%
    21:00 +21°C° 0 mm 3 mps 760 mmHg 47%
    22:00 +20°C° 0 mm 3 mps 760 mmHg 50%
    23:00 +20°C° 0 mm 3 mps 760 mmHg 52%
    Show more